When you browse on this site, cookies collect data to enhance your experience and personalize the content and advertising you see.
Visit our Privacy Policy to learn more. By continuing to use the site, you agree to this use of cookies and data.

Hourly Weather Puebla

Today, 29 September, Tuesday

Time Temperature Precipitation Wind Pressure Humidity
00:00 +16°C° 0 mm 3 mps 588 mmHg 82%
01:00 +14°C° 0 mm 3 mps 588 mmHg 83%
02:00 +14°C° 0 mm 3 mps 588 mmHg 85%
03:00 +14°C° 0 mm 3 mps 588 mmHg 85%
04:00 +13°C° 0 mm 3 mps 588 mmHg 86%
05:00 +13°C° 0 mm 3 mps 588 mmHg 87%
06:00 +14°C° 0.1 mm 3 mps 589 mmHg 83%
07:00 +15°C° 0.1 mm 4 mps 590 mmHg 80%
08:00 +16°C° 0.1 mm 5 mps 591 mmHg 77%
09:00 +16°C° 0.1 mm 5 mps 591 mmHg 75%
10:00 +16°C° 0.1 mm 6 mps 591 mmHg 72%
11:00 +17°C° 0.1 mm 6 mps 591 mmHg 70%
12:00 +17°C° 0 mm 6 mps 591 mmHg 68%
13:00 +17°C° 0 mm 6 mps 591 mmHg 66%
14:00 +19°C° 0 mm 6 mps 590 mmHg 64%
15:00 +16°C° 0 mm 6 mps 590 mmHg 68%
16:00 +15°C° 0 mm 5 mps 589 mmHg 71%
17:00 +14°C° 0 mm 5 mps 589 mmHg 75%
18:00 +13°C° 0 mm 5 mps 589 mmHg 73%
19:00 +13°C° 0 mm 5 mps 590 mmHg 72%
20:00 +12°C° 0 mm 4 mps 590 mmHg 71%
21:00 +12°C° 0 mm 4 mps 590 mmHg 71%
22:00 +12°C° 0 mm 3 mps 590 mmHg 70%
23:00 +11°C° 0 mm 3 mps 589 mmHg 70%

Tomorrow, 30 September, Wednesday

Time Temperature Precipitation Wind Pressure Humidity
00:00 +11°C° 0 mm 3 mps 589 mmHg 69%
01:00 +11°C° 0 mm 3 mps 589 mmHg 69%
02:00 +12°C° 0 mm 2 mps 589 mmHg 68%
03:00 +12°C° 0 mm 2 mps 589 mmHg 69%
04:00 +12°C° 0 mm 2 mps 589 mmHg 69%
05:00 +11°C° 0 mm 3 mps 589 mmHg 69%
06:00 +12°C° 0 mm 3 mps 590 mmHg 66%
07:00 +13°C° 0 mm 3 mps 591 mmHg 63%
08:00 +16°C° 0 mm 3 mps 591 mmHg 60%
09:00 +17°C° 0 mm 2 mps 592 mmHg 56%
10:00 +19°C° 0 mm 2 mps 592 mmHg 52%
11:00 +21°C° 0 mm 2 mps 592 mmHg 48%
12:00 +23°C° 0 mm 2 mps 592 mmHg 47%
13:00 +23°C° 0 mm 2 mps 592 mmHg 46%
14:00 +23°C° 0 mm 2 mps 591 mmHg 45%
15:00 +21°C° 0.1 mm 2 mps 591 mmHg 54%
16:00 +19°C° 0.1 mm 2 mps 590 mmHg 63%
17:00 +18°C° 0.1 mm 2 mps 589 mmHg 72%
18:00 +16°C° 0 mm 2 mps 589 mmHg 74%
19:00 +15°C° 0 mm 2 mps 589 mmHg 77%
20:00 +13°C° 0 mm 2 mps 589 mmHg 79%
21:00 +13°C° 0 mm 2 mps 589 mmHg 77%
22:00 +12°C° 0 mm 2 mps 589 mmHg 76%
23:00 +10°C° 0 mm 2 mps 588 mmHg 74%

Day after tomorrow, 1 October, Thursday

Time Temperature Precipitation Wind Pressure Humidity
00:00 +10°C° 0 mm 2 mps 588 mmHg 71%
01:00 +10°C° 0 mm 2 mps 587 mmHg 68%
02:00 +9°C° 0 mm 2 mps 587 mmHg 64%
03:00 +9°C° 0 mm 2 mps 587 mmHg 60%
04:00 +9°C° 0 mm 2 mps 587 mmHg 57%
05:00 +8°C° 0 mm 2 mps 586 mmHg 53%
06:00 +10°C° 0 mm 2 mps 588 mmHg 48%
07:00 +14°C° 0 mm 2 mps 589 mmHg 43%
08:00 +16°C° 0 mm 2 mps 590 mmHg 38%
09:00 +18°C° 0 mm 2 mps 591 mmHg 34%
10:00 +20°C° 0 mm 2 mps 592 mmHg 31%
11:00 +23°C° 0 mm 1 mps 592 mmHg 27%
12:00 +23°C° 0 mm 1 mps 592 mmHg 28%
13:00 +23°C° 0 mm 2 mps 591 mmHg 28%
14:00 +24°C° 0 mm 2 mps 591 mmHg 28%
15:00 +21°C° 0 mm 2 mps 590 mmHg 37%
16:00 +19°C° 0 mm 2 mps 590 mmHg 47%
17:00 +18°C° 0 mm 1 mps 589 mmHg 56%
18:00 +15°C° 0 mm 2 mps 589 mmHg 58%
19:00 +14°C° 0 mm 2 mps 589 mmHg 60%
20:00 +12°C° 0 mm 2 mps 589 mmHg 62%
21:00 +10°C° 0 mm 3 mps 589 mmHg 58%
22:00 +10°C° 0 mm 3 mps 588 mmHg 55%
23:00 +9°C° 0 mm 3 mps 588 mmHg 52%

2 October, Friday

Time Temperature Precipitation Wind Pressure Humidity
00:00 +8°C° 0 mm 3 mps 588 mmHg 46%
01:00 +8°C° 0 mm 3 mps 587 mmHg 41%
02:00 +8°C° 0 mm 3 mps 587 mmHg 36%
03:00 +7°C° 0 mm 3 mps 587 mmHg 33%
04:00 +7°C° 0 mm 3 mps 587 mmHg 31%
05:00 +6°C° 0 mm 4 mps 587 mmHg 29%
06:00 +8°C° 0 mm 4 mps 588 mmHg 31%
07:00 +11°C° 0 mm 4 mps 589 mmHg 34%
08:00 +13°C° 0 mm 5 mps 590 mmHg 36%
09:00 +15°C° 0 mm 4 mps 591 mmHg 35%
10:00 +18°C° 0 mm 4 mps 592 mmHg 35%
11:00 +20°C° 0 mm 4 mps 592 mmHg 34%
12:00 +20°C° 0 mm 4 mps 592 mmHg 36%
13:00 +21°C° 0 mm 4 mps 591 mmHg 38%
14:00 +21°C° 0 mm 4 mps 591 mmHg 40%
15:00 +19°C° 0 mm 5 mps 590 mmHg 47%
16:00 +16°C° 0 mm 5 mps 590 mmHg 55%
17:00 +14°C° 0 mm 5 mps 589 mmHg 62%
18:00 +13°C° 0 mm 5 mps 589 mmHg 66%
19:00 +12°C° 0 mm 5 mps 589 mmHg 69%
20:00 +10°C° 0 mm 5 mps 589 mmHg 73%
21:00 +9°C° 0 mm 5 mps 589 mmHg 74%
22:00 +10°C° 0 mm 4 mps 589 mmHg 76%
23:00 +10°C° 0 mm 4 mps 589 mmHg 77%

3 October, Saturday

Time Temperature Precipitation Wind Pressure Humidity
00:00 +10°C° 0 mm 4 mps 588 mmHg 79%
01:00 +10°C° 0 mm 4 mps 588 mmHg 80%
02:00 +10°C° 0 mm 4 mps 588 mmHg 82%
03:00 +10°C° 0 mm 3 mps 588 mmHg 82%
04:00 +10°C° 0 mm 3 mps 588 mmHg 83%
05:00 +10°C° 0 mm 3 mps 588 mmHg 83%
06:00 +12°C° 0 mm 4 mps 589 mmHg 78%
07:00 +13°C° 0 mm 4 mps 590 mmHg 73%
08:00 +15°C° 0 mm 5 mps 591 mmHg 67%
09:00 +16°C° 0 mm 5 mps 591 mmHg 63%
10:00 +19°C° 0 mm 4 mps 591 mmHg 59%
11:00 +20°C° 0 mm 4 mps 591 mmHg 54%
12:00 +20°C° 0 mm 4 mps 591 mmHg 55%
13:00 +20°C° 0 mm 3 mps 590 mmHg 55%
14:00 +20°C° 0 mm 3 mps 589 mmHg 56%
15:00 +19°C° 0.1 mm 3 mps 589 mmHg 61%
16:00 +18°C° 0.1 mm 2 mps 589 mmHg 65%
17:00 +17°C° 0.1 mm 2 mps 589 mmHg 70%
18:00 +16°C° 0 mm 2 mps 589 mmHg 73%
19:00 +15°C° 0 mm 2 mps 589 mmHg 77%
20:00 +13°C° 0 mm 3 mps 589 mmHg 80%
21:00 +13°C° 0 mm 2 mps 588 mmHg 81%
22:00 +12°C° 0 mm 2 mps 588 mmHg 82%
23:00 +12°C° 0 mm 2 mps 588 mmHg 84%

4 October, Sunday

Time Temperature Precipitation Wind Pressure Humidity
00:00 +10°C° 0 mm 2 mps 588 mmHg 82%
01:00 +10°C° 0 mm 2 mps 587 mmHg 81%
02:00 +10°C° 0 mm 2 mps 587 mmHg 79%
03:00 +10°C° 0 mm 2 mps 587 mmHg 77%
04:00 +9°C° 0 mm 2 mps 587 mmHg 74%
05:00 +9°C° 0 mm 2 mps 587 mmHg 72%
06:00 +12°C° 0 mm 2 mps 588 mmHg 66%
07:00 +13°C° 0 mm 3 mps 589 mmHg 60%
08:00 +16°C° 0 mm 3 mps 590 mmHg 54%
09:00 +18°C° 0 mm 3 mps 591 mmHg 49%
10:00 +20°C° 0 mm 3 mps 591 mmHg 45%
11:00 +21°C° 0 mm 3 mps 592 mmHg 41%
12:00 +21°C° 0 mm 3 mps 591 mmHg 40%
13:00 +22°C° 0 mm 3 mps 591 mmHg 39%
14:00 +22°C° 0 mm 3 mps 590 mmHg 38%
15:00 +20°C° 0 mm 3 mps 589 mmHg 43%
16:00 +18°C° 0 mm 3 mps 589 mmHg 47%
17:00 +16°C° 0 mm 3 mps 588 mmHg 52%
18:00 +14°C° 0 mm 3 mps 588 mmHg 53%
19:00 +13°C° 0 mm 3 mps 588 mmHg 54%
20:00 +11°C° 0 mm 3 mps 588 mmHg 54%
21:00 +10°C° 0 mm 3 mps 588 mmHg 54%
22:00 +10°C° 0 mm 3 mps 588 mmHg 53%
23:00 +9°C° 0 mm 3 mps 588 mmHg 52%
Show more